Vorticity
4 8 4 8 3 4 4 5 8 15 10 11 8 5 3 3 7 6 12 13 25 16 12 10 10 8 8 9 9 9 8 8 7 7 8 10 11 12 14 15 18 15 12 12
3 8 5 8 3 4 3 4 6 14 8 11 9 4 3 4 8 3 15 14 18 16 15 14 11 11 12 12 12 11 11 12 14 15 15 11 10 7 7 6 7 8 12 10
4 8 5 7 2 3 3 3 4 8 16 11 9 5 2 5 8 2 12 19 15 9 13 15 15 13 10 11 10 7 8 9 7 4 3 2 7 10 14 15 14 12 9 5
4 6 6 8 1 3 0 1 2 5 11 12 12 5 4 4 8 1 2 9 10 5 11 9 8 8 7 5 4 5 7 6 6 4 6 10 12 7 3 5 0 2 8 14
5 4 8 6 3 4 2 -0 2 2 7 13 9 10 3 5 6 7 1 2 4 11 5 8 7 7 5 6 7 8 5 3 3 4 4 4 0 4 9 7 5 8 8 7
5 4 7 4 5 3 3 1 0 2 2 9 16 10 5 7 2 6 6 5 3 5 1 3 3 4 5 6 4 6 8 7 7 7 6 -0 7 5 4 7 5 5 6 7
6 5 3 9 7 3 4 -1 1 3 1 2 10 16 9 8 4 3 5 -1 -5 -3 -2 -1 5 4 4 5 7 7 5 6 7 5 6 8 2 7 4 6 4 10 5 8
10 6 4 5 6 8 1 3 1 -0 -0 2 2 8 13 8 8 5 2 1 2 8 6 8 5 1 3 7 6 8 10 7 8 4 3 4 5 2 5 4 3 3 5 6
11 9 6 5 7 6 7 3 3 2 -1 1 2 1 8 12 9 7 5 5 4 6 4 3 4 7 8 6 5 1 7 9 6 5 4 3 4 3 3 4 3 6 7 7
13 13 9 5 4 8 6 4 4 4 0 -1 -0 1 4 7 14 9 7 3 4 5 2 0 1 6 6 6 4 6 7 0 3 3 4 5 3 4 6 4 9 7 6 7
10 15 10 9 5 4 7 8 5 1 4 1 -2 3 4 2 4 13 11 9 3 5 -0 -0 3 3 5 8 8 0 5 7 7 7 7 7 7 7 8 8 8 6 8 7
11 10 15 13 5 5 4 8 7 6 2 3 3 -3 1 5 2 2 13 12 7 8 3 3 4 7 5 7 -1 5 8 5 4 5 4 3 4 7 10 9 8 8 8 7
9 11 11 15 13 9 5 5 6 7 7 3 5 5 1 5 3 0 2 12 15 6 7 9 5 5 10 3 8 5 3 4 6 8 6 6 7 8 5 7 7 7 8 7
6 8 10 9 12 16 8 8 5 5 8 8 3 5 9 2 -3 6 2 2 10 16 9 5 6 10 8 5 4 4 6 7 9 6 6 6 7 6 7 6 7 7 7 7
14 13 5 5 9 9 13 11 7 5 5 10 -3 9 1 1 1 5 4 2 2 8 14 12 7 5 5 9 8 8 6 6 6 5 7 7 6 5 6 8 9 9 8 6
12 11 13 9 7 8 9 9 17 10 6 8 7 6 8 4 3 3 2 6 2 3 7 11 13 11 8 4 4 4 5 5 6 6 6 7 5 6 7 6 7 9 8 6
7 14 12 15 11 8 10 9 13 11 14 10 10 8 10 7 10 4 3 4 6 2 3 6 9 11 12 11 9 6 5 5 6 6 6 6 6 6 5 7 7 8 9 8
6 10 13 13 11 12 12 11 16 12 15 12 11 10 6 11 9 6 5 6 7 4 2 3 5 8 7 11 11 10 9 8 9 9 10 10 10 9 8 8 8 9 10 10
5 9 11 9 14 13 14 11 7 20 11 15 9 10 8 7 11 13 8 9 8 6 3 3 3 4 6 8 9 10 10 10 10 11 12 13 13 12 11 9 8 8 11 11
7 4 9 8 11 14 15 21 9 3 18 -6 20 13 10 10 10 12 11 7 6 8 5 3 2 3 3 4 7 7 8 9 8 7 8 10 13 12 11 10 9 9 12 10
13 8 4 4 1 9 22 13 13 13 11 17 -7 20 13 8 9 9 12 9 7 6 8 5 3 3 2 4 4 6 6 6 8 9 8 8 9 10 10 10 9 10 12 12
9 11 9 4 2 6 5 14 13 13 16 12 18 -5 13 14 9 6 8 10 8 8 9 6 5 4 3 2 3 4 4 4 5 5 6 7 8 9 10 9 8 9 10 12
7 11 8 8 9 3 9 9 12 12 16 12 14 9 16 5 18 10 7 10 7 7 7 7 8 7 4 2 2 2 3 3 4 4 4 5 6 6 9 10 9 9 10 11
9 8 9 10 13 8 5 6 3 7 10 18 18 18 6 23 4 17 12 7 12 9 9 10 7 8 8 6 3 3 3 2 3 3 3 3 3 3 5 7 8 8 10 10
10 14 12 10 12 10 8 5 5 7 7 7 9 20 19 5 22 6 9 9 10 9 6 7 9 8 8 9 7 5 4 4 3 4 4 3 3 3 3 4 6 8 9 9
18 11 10 12 13 9 13 7 5 5 5 8 9 14 17 22 10 21 7 9 7 8 9 7 6 8 7 11 9 8 7 6 5 5 5 4 3 3 3 3 3 4 9 9
Height
5867 5867 5867 5867 5867 5865 5863 5860 5855 5851 5849 5846 5844 5842 5840 5836 5831 5825 5817 5808 5800 5793 5788 5784 5781 5776 5772 5769 5765 5760 5756 5751 5747 5743 5739 5734 5729 5725 5720 5715 5711 5705 5699 5692
5865 5865 5865 5865 5865 5865 5863 5860 5856 5852 5848 5846 5844 5842 5839 5836 5831 5825 5818 5810 5803 5795 5790 5786 5782 5778 5774 5770 5766 5762 5756 5752 5749 5744 5739 5735 5730 5725 5720 5715 5710 5703 5697 5691
5862 5863 5863 5863 5864 5863 5862 5860 5856 5853 5849 5846 5843 5841 5839 5836 5831 5826 5820 5812 5806 5800 5794 5789 5785 5781 5777 5773 5768 5764 5759 5755 5751 5746 5741 5736 5731 5725 5720 5714 5708 5703 5695 5689
5861 5861 5861 5861 5861 5862 5861 5859 5856 5853 5849 5846 5843 5842 5839 5836 5831 5826 5822 5817 5810 5804 5799 5794 5789 5784 5779 5775 5771 5766 5761 5756 5752 5748 5743 5738 5733 5727 5720 5715 5709 5702 5694 5687
5859 5858 5858 5859 5860 5859 5859 5858 5856 5853 5849 5846 5843 5841 5838 5835 5832 5827 5823 5819 5814 5809 5803 5798 5793 5788 5783 5778 5774 5769 5764 5759 5755 5750 5745 5740 5735 5729 5723 5716 5709 5702 5695 5688
5855 5856 5856 5856 5857 5857 5857 5856 5854 5852 5849 5846 5842 5840 5838 5835 5832 5828 5824 5820 5816 5812 5807 5802 5798 5793 5787 5782 5777 5772 5767 5762 5757 5752 5747 5741 5735 5729 5723 5717 5710 5703 5695 5686
5851 5852 5853 5853 5854 5854 5854 5854 5853 5852 5849 5846 5842 5839 5837 5834 5831 5828 5824 5821 5817 5813 5809 5805 5800 5795 5790 5785 5780 5774 5769 5763 5758 5752 5747 5741 5736 5730 5723 5716 5709 5701 5693 5684
5846 5849 5850 5850 5850 5851 5851 5851 5850 5848 5847 5845 5842 5839 5836 5833 5831 5827 5824 5821 5817 5813 5810 5805 5801 5796 5790 5785 5781 5776 5771 5765 5759 5753 5747 5741 5736 5729 5723 5715 5708 5700 5691 5682
5841 5843 5845 5846 5846 5847 5847 5847 5847 5846 5845 5843 5841 5838 5834 5831 5829 5826 5824 5820 5816 5813 5809 5805 5801 5796 5791 5787 5782 5776 5770 5765 5759 5754 5747 5742 5735 5728 5722 5714 5707 5699 5690 5681
5837 5837 5839 5841 5842 5843 5842 5843 5843 5842 5841 5840 5839 5836 5833 5830 5827 5825 5822 5819 5816 5812 5808 5804 5800 5796 5791 5786 5781 5776 5771 5765 5759 5754 5748 5742 5735 5728 5721 5714 5706 5697 5689 5680
5831 5832 5835 5835 5836 5837 5838 5837 5837 5837 5837 5836 5835 5834 5831 5828 5825 5823 5820 5817 5814 5811 5807 5803 5798 5794 5790 5785 5780 5775 5770 5765 5759 5753 5748 5741 5735 5728 5720 5713 5704 5696 5687 5678
5826 5827 5827 5829 5829 5830 5831 5832 5831 5831 5832 5831 5830 5832 5828 5826 5822 5820 5817 5814 5811 5809 5805 5801 5797 5792 5788 5784 5779 5774 5769 5763 5758 5753 5747 5740 5734 5727 5720 5712 5704 5695 5687 5677
5820 5820 5821 5822 5823 5823 5824 5824 5825 5825 5825 5827 5824 5827 5823 5821 5820 5817 5814 5811 5808 5805 5802 5799 5795 5791 5787 5783 5778 5773 5767 5762 5757 5751 5746 5739 5733 5726 5719 5711 5703 5695 5686 5677
5812 5814 5815 5816 5814 5816 5817 5817 5817 5817 5819 5818 5820 5820 5817 5815 5815 5813 5811 5808 5805 5802 5799 5796 5792 5789 5785 5781 5776 5771 5766 5761 5755 5750 5744 5738 5731 5724 5717 5709 5702 5693 5684 5676
5807 5808 5807 5807 5807 5807 5807 5808 5809 5810 5812 5809 5815 5812 5813 5807 5809 5809 5807 5804 5802 5799 5795 5792 5789 5786 5783 5778 5773 5768 5764 5759 5754 5748 5742 5736 5730 5723 5716 5708 5700 5692 5683 5674
5801 5799 5799 5800 5798 5797 5797 5800 5801 5802 5803 5801 5802 5806 5801 5802 5803 5803 5802 5800 5798 5795 5792 5788 5785 5782 5779 5776 5771 5766 5762 5757 5752 5746 5740 5734 5728 5721 5714 5706 5699 5690 5682 5673
5793 5792 5791 5792 5788 5788 5789 5794 5793 5792 5793 5792 5793 5794 5794 5797 5795 5796 5795 5794 5793 5791 5788 5785 5782 5778 5775 5772 5768 5764 5759 5754 5749 5743 5737 5731 5725 5719 5712 5705 5697 5689 5680 5672
5786 5784 5782 5782 5780 5777 5784 5784 5784 5783 5783 5781 5782 5784 5785 5788 5788 5788 5787 5787 5786 5785 5783 5781 5778 5775 5771 5768 5764 5760 5756 5751 5746 5740 5734 5728 5723 5717 5710 5703 5695 5687 5679 5671
5778 5776 5774 5772 5772 5770 5773 5773 5775 5774 5774 5774 5774 5775 5777 5779 5779 5780 5781 5781 5779 5779 5777 5775 5773 5771 5768 5764 5761 5756 5752 5748 5743 5738 5732 5726 5720 5714 5708 5701 5693 5686 5678 5670
5771 5769 5767 5764 5762 5762 5762 5767 5765 5763 5764 5767 5768 5767 5768 5769 5770 5771 5772 5771 5772 5771 5770 5770 5768 5766 5764 5761 5758 5753 5749 5745 5740 5735 5730 5724 5718 5712 5706 5699 5692 5684 5677 5669
5761 5760 5759 5756 5753 5756 5756 5755 5754 5754 5759 5756 5757 5758 5759 5760 5762 5762 5763 5763 5763 5763 5762 5762 5762 5760 5759 5757 5754 5751 5747 5742 5738 5733 5728 5723 5717 5710 5704 5697 5690 5683 5675 5668
5750 5749 5751 5748 5746 5747 5747 5746 5745 5746 5745 5745 5747 5748 5749 5749 5751 5752 5753 5754 5754 5754 5755 5754 5754 5754 5753 5751 5749 5747 5743 5740 5736 5731 5726 5721 5715 5709 5703 5696 5689 5682 5674 5667
5739 5740 5739 5739 5741 5738 5737 5737 5736 5735 5736 5736 5737 5737 5738 5740 5741 5741 5742 5744 5744 5745 5745 5746 5746 5745 5745 5744 5743 5740 5739 5736 5733 5729 5724 5719 5713 5707 5701 5695 5688 5681 5674 5667
5726 5727 5728 5727 5730 5728 5727 5727 5727 5726 5726 5726 5727 5727 5727 5728 5730 5732 5732 5732 5733 5734 5736 5736 5736 5737 5737 5736 5736 5734 5732 5730 5728 5724 5720 5716 5711 5706 5700 5694 5687 5681 5673 5666
5715 5715 5718 5717 5717 5717 5718 5717 5717 5716 5716 5716 5714 5715 5716 5716 5717 5719 5720 5722 5722 5724 5725 5726 5726 5727 5728 5728 5727 5727 5726 5724 5722 5719 5716 5712 5708 5703 5698 5692 5686 5679 5672 5665
5704 5704 5703 5705 5705 5706 5708 5706 5707 5706 5705 5704 5703 5702 5702 5704 5706 5707 5710 5710 5711 5713 5714 5715 5716 5718 5719 5720 5719 5718 5718 5717 5715 5713 5711 5707 5704 5700 5695 5690 5685 5678 5672 5665